Kilmarnock, Virginia, United States (22482)
Lat: 37.71N, Lon: 76.38W
Wx Zone: VAZ078
Local Info
Past Weather Observations for Yesterday

NOTE: This archive is for the closest National Weather Service station to Kilmarnock. Information may differ from the station used for current weather conditions.

Click here for Long-term Archive

Time Weather Temperature Dewpoint Humidity Pressure Winds Precip Visibility
23:55
Clear
75°F / 24°C 72°F / 22°C 89% 30.09 in
(1019 mb)
Calm - 10SM
23:35
Clear
75°F / 24°C 72°F / 22°C 89% 30.12 in
(1020 mb)
Calm - 10SM
23:15
Clear
75°F / 24°C 72°F / 22°C 89% 30.12 in
(1020 mb)
Calm - 10SM
22:55
Clear
75°F / 24°C 72°F / 22°C 89% 30.12 in
(1020 mb)
SE 3.5 mph
(SE 6 kph)
- 10SM
22:35
Clear
75°F / 24°C 72°F / 22°C 89% 30.12 in
(1020 mb)
ESE 3.5 mph
(ESE 6 kph)
- 10SM
22:15
Clear
77°F / 25°C 72°F / 22°C 83% 30.12 in
(1020 mb)
SE 4.6 mph
(SE 7 kph)
- 10SM
21:55
Clear
75°F / 24°C 70°F / 21°C 83% 30.12 in
(1020 mb)
SE 4.6 mph
(SE 7 kph)
- 10SM
21:35
Clear
77°F / 25°C 70°F / 21°C 79% 30.12 in
(1020 mb)
SE 4.6 mph
(SE 7 kph)
- 10SM
21:15
Clear
77°F / 25°C 70°F / 21°C 79% 30.12 in
(1020 mb)
ESE 4.6 mph
(ESE 7 kph)
- 10SM
20:55
Clear
77°F / 25°C 70°F / 21°C 79% 30.12 in
(1020 mb)
SE 5.8 mph
(SE 9 kph)
- 10SM
20:35
Clear
77°F / 25°C 70°F / 21°C 79% 30.12 in
(1020 mb)
SE 4.6 mph
(SE 7 kph)
- 10SM
20:15
Clear
77°F / 25°C 70°F / 21°C 79% 30.12 in
(1020 mb)
ESE 3.5 mph
(ESE 6 kph)
- 10SM
19:55
Clear
77°F / 25°C 68°F / 20°C 74% 30.12 in
(1020 mb)
E 4.6 mph
(E 7 kph)
- 10SM
19:35
Clear
79°F / 26°C 68°F / 20°C 70% 30.12 in
(1020 mb)
ESE 5.8 mph
(ESE 9 kph)
- 10SM
19:15
Clear
81°F / 27°C 68°F / 20°C 66% 30.12 in
(1020 mb)
ESE 5.8 mph
(ESE 9 kph)
- 10SM
18:55
Clear
81°F / 27°C 68°F / 20°C 66% 30.12 in
(1020 mb)
SE 4.6 mph
(SE 7 kph)
- 10SM
18:35
Clear
82°F / 28°C 68°F / 20°C 62% 30.12 in
(1020 mb)
SE 5.8 mph
(SE 9 kph)
- 10SM
18:15
Clear
84°F / 29°C 68°F / 20°C 58% 30.12 in
(1020 mb)
SE 6.9 mph
(SE 11 kph)
- 10SM
17:55
Clear
84°F / 29°C 68°F / 20°C 58% 30.12 in
(1020 mb)
ESE 6.9 mph
(ESE 11 kph)
- 10SM
17:35
Clear
84°F / 29°C 66°F / 19°C 55% 30.12 in
(1020 mb)
ESE 9.2 mph
(ESE 15 kph)
- 10SM
17:15
Clear
86°F / 30°C 66°F / 19°C 52% 30.12 in
(1020 mb)
E 9.2 mph
(E 15 kph)
- 10SM
16:55
Clear
86°F / 30°C 66°F / 19°C 52% 30.12 in
(1020 mb)
SE 8.1 mph
(SE 13 kph)
- 10SM
16:35
Clear
86°F / 30°C 66°F / 19°C 52% 30.12 in
(1020 mb)
SE 8.1 mph
(SE 13 kph)
- 10SM
16:15
Clear
88°F / 31°C 66°F / 19°C 49% 30.12 in
(1020 mb)
SE 9.2 mph
(SE 15 kph)
- 10SM
15:55
Clear
88°F / 31°C 66°F / 19°C 49% 30.12 in
(1020 mb)
SE 8.1 mph
(SE 13 kph)
- 10SM
15:35
Clear
88°F / 31°C 64°F / 18°C 46% 30.12 in
(1020 mb)
ESE 4.6 mph
(ESE 7 kph)
- 10SM
15:15
Clear
88°F / 31°C 64°F / 18°C 46% 30.12 in
(1020 mb)
E 10.4 mph
(E 17 kph)
- 10SM
14:55
Partly Cloudy
88°F / 31°C 68°F / 20°C 52% 30.15 in
(1021 mb)
SSE 8.1 mph
(SSE 13 kph)
- 10SM
14:35
Partly Cloudy
88°F / 31°C 66°F / 19°C 49% 30.15 in
(1021 mb)
E 8.1 mph
(E 13 kph)
- 10SM
14:15
Partly Cloudy
88°F / 31°C 68°F / 20°C 52% 30.15 in
(1021 mb)
SSE 8.1 mph
(SSE 13 kph)
- 10SM
13:55
Partly Cloudy
88°F / 31°C 68°F / 20°C 52% 30.15 in
(1021 mb)
SSE 9.2 mph
(SSE 15 kph)
- 10SM
13:35
Partly Cloudy
88°F / 31°C 68°F / 20°C 52% 30.15 in
(1021 mb)
SSE 10.4 mph
(SSE 17 kph)
- 10SM
13:15
Partly Cloudy
88°F / 31°C 68°F / 20°C 52% 30.15 in
(1021 mb)
S 11.5 mph
(S 19 kph)
- 10SM
12:55
Partly Cloudy
88°F / 31°C 66°F / 19°C 49% 30.15 in
(1021 mb)
SSE 9.2 mph
(SSE 15 kph)
- 10SM
12:35
Clear
88°F / 31°C 68°F / 20°C 52% 30.18 in
(1022 mb)
SSE 9.2 mph
(SSE 15 kph)
- 10SM
12:15
Partly Cloudy
86°F / 30°C 68°F / 20°C 55% 30.18 in
(1022 mb)
SSE 6.9 mph
(SSE 11 kph)
- 10SM
11:55
Mostly Cloudy
86°F / 30°C 66°F / 19°C 52% 30.18 in
(1022 mb)
SSE 4.6 mph
(SSE 7 kph)
- 10SM
11:35
Partly Cloudy
86°F / 30°C 68°F / 20°C 55% 30.18 in
(1022 mb)
SSE 4.6 mph
(SSE 7 kph)
- 10SM
11:15
Mostly Cloudy
86°F / 30°C 66°F / 19°C 52% 30.18 in
(1022 mb)
E 6.9 mph
(E 11 kph)
- 10SM
10:55
Clear
86°F / 30°C 66°F / 19°C 52% 30.18 in
(1022 mb)
SSE 3.5 mph
(SSE 6 kph)
- 10SM
10:35
Partly Cloudy
86°F / 30°C 64°F / 18°C 49% 30.18 in
(1022 mb)
ENE 5.8 mph
(ENE 9 kph)
- 10SM
10:15
Mostly Cloudy
84°F / 29°C 66°F / 19°C 55% 30.18 in
(1022 mb)
Calm - 10SM
09:55
Partly Cloudy
84°F / 29°C 66°F / 19°C 55% 30.21 in
(1023 mb)
ENE 6.9 mph
(ENE 11 kph)
- 10SM
09:35
Mostly Cloudy
84°F / 29°C 68°F / 20°C 58% 30.21 in
(1023 mb)
NE 5.8 mph
(NE 9 kph)
- 10SM
09:15
Mostly Cloudy
84°F / 29°C 68°F / 20°C 58% 30.21 in
(1023 mb)
E 3.5 mph
(E 6 kph)
- 10SM
08:55
Mostly Cloudy
82°F / 28°C 68°F / 20°C 62% 30.21 in
(1023 mb)
E 3.5 mph
(E 6 kph)
- 10SM
08:35
Mostly Cloudy
81°F / 27°C 68°F / 20°C 66% 30.21 in
(1023 mb)
Calm - 10SM
08:15
Clear
81°F / 27°C 68°F / 20°C 66% 30.21 in
(1023 mb)
E 5.8 mph
(E 9 kph)
- 10SM
07:55
Clear
81°F / 27°C 70°F / 21°C 70% 30.21 in
(1023 mb)
E 5.8 mph
(E 9 kph)
- 10SM
07:35
Clear
79°F / 26°C 72°F / 22°C 79% 30.21 in
(1023 mb)
E 5.8 mph
(E 9 kph)
- 10SM
07:15
Clear
77°F / 25°C 72°F / 22°C 83% 30.21 in
(1023 mb)
E 3.5 mph
(E 6 kph)
- 10SM
06:55
Clear
75°F / 24°C 72°F / 22°C 89% 30.21 in
(1023 mb)
Calm - 10SM
06:35
Clear
73°F / 23°C 72°F / 22°C 94% 30.18 in
(1022 mb)
Calm - 10SM
05:15
Clear
72°F / 22°C 68°F / 20°C 88% 30.18 in
(1022 mb)
Calm - 10SM
04:55
Clear
72°F / 22°C 68°F / 20°C 88% 30.18 in
(1022 mb)
Calm - 10SM
04:35
Clear
72°F / 22°C 68°F / 20°C 88% 30.18 in
(1022 mb)
Calm - 10SM
04:15
Clear
72°F / 22°C 68°F / 20°C 88% 30.18 in
(1022 mb)
Calm - 10SM
03:55
Clear
72°F / 22°C 68°F / 20°C 88% 30.18 in
(1022 mb)
ENE 3.5 mph
(ENE 6 kph)
- 10SM
03:35
Clear
72°F / 22°C 68°F / 20°C 88% 30.18 in
(1022 mb)
Calm - 10SM
03:15
Partly Cloudy
72°F / 22°C 68°F / 20°C 88% 30.18 in
(1022 mb)
Calm - 10SM
02:55
Mostly Cloudy
72°F / 22°C 70°F / 21°C 94% 30.18 in
(1022 mb)
Calm - 10SM
02:35
Overcast
72°F / 22°C 70°F / 21°C 94% 30.18 in
(1022 mb)
Calm - 10SM
02:15
Mostly Cloudy
72°F / 22°C 68°F / 20°C 88% 30.18 in
(1022 mb)
Calm - 10SM
01:55
Partly Cloudy
72°F / 22°C 68°F / 20°C 88% 30.18 in
(1022 mb)
Calm - 10SM
01:35
Partly Cloudy
73°F / 23°C 70°F / 21°C 89% 30.18 in
(1022 mb)
Calm - 10SM
01:15
Mostly Cloudy
73°F / 23°C 70°F / 21°C 89% 30.18 in
(1022 mb)
Calm - 10SM
00:55
Mostly Cloudy
73°F / 23°C 70°F / 21°C 89% 30.18 in
(1022 mb)
NE 3.5 mph
(NE 6 kph)
- 10SM
00:35
Overcast
75°F / 24°C 70°F / 21°C 83% 30.18 in
(1022 mb)
Calm - 10SM
00:15
Overcast
75°F / 24°C 70°F / 21°C 83% 30.18 in
(1022 mb)
Calm - 10SM
Time Weather Temperature Dewpoint Humidity Pressure Winds Precip Visibility


Weather for websites

WeatherForYou.com, LLC is not responsible for any damages or problems caused by this service. Current weather conditions are obtained from the closest station including government and personal stations which may have varying degrees of accuracy. Weather forecasts are derived from the NOAA NDFD. Like all things, this site belongs to Jesus Christ... He just trusts me to maintain it. If you have any questions or comments email webmaster@weatherforyou.com

Copyright © 2014, WeatherForYou.com LLC. All rights reserved.